Flight Track Log - Related Links

Times and Time Zones

All times are in EDT time to prevent confusion due to time zone crossing. See the JBU33 flight status page for this flight to view local times or setup timezone preferences in your user account.

Time Position Orientation Groundspeed Altitude Reporting Facility
EDT Latitude Longitude Course Direction KTS MPH feet Rate Location/Type
Tue 01:09:00 PM 44.1444 -73.2709 195° South  Level FlightAware Approximate
Tue 01:09:26 PM 44.2903 -73.1536 196° South 265 305 9,200  Level Boston Center
Tue 01:10:00 PM 44.0634 -73.3011 194° South  Level FlightAware Approximate
Tue 01:10:26 PM 44.2114 -73.1208 163° South 284 327 11,200  Level Boston Center
Tue 01:11:00 PM 44.0079 -73.3196 194° South  Level FlightAware Approximate
Tue 01:11:26 PM 44.1219 -73.0878 165° South 329 379 13,400  Level Boston Center
Tue 01:12:00 PM 43.9524 -73.3381 193° South  Level FlightAware Approximate
Tue 01:12:26 PM 44.0242 -73.0781 176° South 349 402 16,200  Level Boston Center
Tue 01:13:00 PM 43.8972 -73.3578 196° South  Level FlightAware Approximate
Tue 01:13:26 PM 43.9261 -73.1117 194° South 355 409 18,400  Level Boston Center
Tue 01:14:00 PM 43.8424 -73.3799 196° South  Level FlightAware Approximate
Tue 01:14:26 PM 43.8217 -73.1481 194° South 367 422 20,600  Level Boston Center
Tue 01:15:26 PM 43.7150 -73.1811 193° South 395 455 22,600 1,800 Climbing Boston Center
Tue 01:16:26 PM 43.6106 -73.2142 193° South 400 460 24,200 1,700 Climbing Boston Center
Tue 01:17:26 PM 43.4936 -73.2500 193° South 422 486 26,000 1,700 Climbing Boston Center
Tue 01:18:26 PM 43.3642 -73.2969 195° South 427 491 27,600 1,000 Climbing Boston Center
Tue 01:19:26 PM 43.2450 -73.3322 192° South 432 497 28,000 200 Climbing Boston Center
Tue 01:20:26 PM 43.1178 -73.3703 192° South 453 521 28,000  Level Boston Center
Tue 01:21:26 PM 42.9944 -73.4108 194° South 453 521 28,000  Level Boston Center
Tue 01:22:26 PM 42.8753 -73.4517 194° South 453 521 28,000  Level Boston Center
Tue 01:23:26 PM 42.7581 -73.4892 193° South 441 507 28,000  Level Boston Center
Tue 01:24:26 PM 42.6350 -73.5267 193° South 441 507 28,000  Level Boston Center
Tue 01:25:26 PM 42.5136 -73.5639 193° South 446 513 28,000  Level Boston Center
Tue 01:26:26 PM 42.3922 -73.6039 194° South 451 519 28,000  Level Boston Center
Tue 01:27:26 PM 42.2836 -73.6383 193° South 451 519 28,000  Level Boston Center
Tue 01:28:26 PM 42.1686 -73.6697 191° South 445 512 28,000  Level Boston Center
Tue 01:29:26 PM 42.0492 -73.7344 202° Southwest 451 519 28,000  Level Boston Center
Tue 01:30:26 PM 41.9339 -73.7936 201° Southwest 456 525 28,000 -342 Level Boston Center
Tue 01:32:04 PM 41.7472 -73.8850 200° South 450 518 27,100 -1,215 Descending New York Center
Tue 01:33:04 PM 41.6356 -73.9408 200° South 450 518 24,800 -2,250 Descending New York Center
Tue 01:34:04 PM 41.5322 -73.9914 200° South 430 495 22,600 -2,200 Descending New York Center
Tue 01:35:04 PM 41.4244 -74.0442 200° South 413 475 20,400 -1,300 Descending New York Center
Tue 01:36:04 PM 41.3289 -74.1142 209° Southwest 406 467 20,000 -198 Descending New York Center
Tue 01:37:05 PM 41.2369 -74.1922 213° Southwest 406 467 20,000  Level New York Center
Tue 01:38:04 PM 41.1347 -74.1981 182° South 385 443 20,000 -154 Level New York Center
Tue 01:38:23 PM 41.0833 -74.1833 168° South 402 463 19,800 -759 Descending New York TRACON
Tue 01:39:23 PM 40.9667 -74.1500 168° South 371 427 19,000 -1,050 Descending New York TRACON
Tue 01:40:23 PM 40.9000 -74.0833 143° Southeast 344 396 17,700 -1,300 Descending New York TRACON
Tue 01:41:23 PM 40.8500 -73.9833 123° Southeast 327 376 16,400 -1,150 Descending New York TRACON
Tue 01:42:23 PM 40.8000 -73.8833 123° Southeast 321 369 15,400 -1,215 Descending New York TRACON
Tue 01:44:06 PM 40.7267 -73.7258 122° Southeast 318 366 13,100 -1,200 Descending New York Center
Tue 01:44:23 PM 40.7167 -73.6833 107° East 321 369 13,000 -1,271 Descending New York TRACON
Tue 01:46:04 PM 40.5936 -73.6325 163° South 279 321 10,600 -1,565 Descending New York Center
Tue 01:47:04 PM 40.5150 -73.6075 166° South 290 334 8,800 -1,747 Descending New York Center
Tue 01:47:23 PM 40.4833 -73.6000 170° South 280 322 8,300 -1,671 Descending New York TRACON
Tue 01:48:23 PM 40.4167 -73.5833 169° South 277 319 6,600 -1,471 Descending New York TRACON
Tue 01:49:05 PM 40.3711 -73.6178 210° Southwest 270 311 5,800 -1,440 Descending New York Center
Tue 01:50:03 PM 40.3258 -73.6786 226° Southwest 265 305 4,200 -1,769 Descending New York Center
Tue 01:50:23 PM 40.3167 -73.7167 252° West 277 319 3,500 -541 Descending New York TRACON
Tue 01:52:05 PM 40.3397 -73.8697 281° West 276 318 3,100 -125 Descending New York Center
Tue 01:54:23 PM 40.4333 -73.9833 317° Northwest 180 207 3,000 -23 Descending New York TRACON
Tue 01:56:23 PM 40.5167 -73.9667 North 160 184 3,000 -267 Level New York TRACON
Tue 01:57:23 PM 40.5667 -73.9333 27° Northeast 153 176 2,200 -750 Descending New York TRACON
Tue 01:58:23 PM 40.6000 -73.9167 21° North 131 151 1,500 -350 Descending New York TRACON
Tue 01:59:23 PM 40.6167 -73.8833 57° Northeast 131 151 1,500 -267 Level New York TRACON
Tue 02:01:23 PM 40.6667 -73.8167 45° Northeast 122 140 700 -400 Descending New York TRACON
Tue 02:03:00 PM 40.6398 -73.7789 51° Northeast  Level Estimated
Tue 02:10:00 PM 40.6398 -73.7789 51° Northeast  Level Estimated

Login

Don't have an account? Register now (free) for customized features, flight alerts, and more!